When you browse on this site, cookies collect data to enhance your experience and personalize the content and advertising you see.
Visit our Privacy Policy to learn more. By continuing to use the site, you agree to this use of cookies and data.
  • en Suisse
  • Liste des pays
  • À 7 jours
  • Température de l'eau
  • Carte météo
  • Widgets météo
  • user-avatar
    Se connecter

    Météo par heure à Northampton

    Ce jour, 16 Décembre, Lundi

    Heure Température Précipitation Vent Pression Humidité
    00:00 +4°C° 0.2 mm 6 m/s 739 mmHg 87%
    01:00 +4°C° 0 mm 6 m/s 739 mmHg 87%
    02:00 +3°C° 0 mm 5 m/s 739 mmHg 86%
    03:00 +3°C° 0 mm 5 m/s 739 mmHg 85%
    04:00 +3°C° 0 mm 5 m/s 739 mmHg 85%
    05:00 +3°C° 0 mm 5 m/s 739 mmHg 86%
    06:00 +2°C° 0 mm 5 m/s 739 mmHg 86%
    07:00 +3°C° 0 mm 4 m/s 739 mmHg 86%
    08:00 +3°C° 0 mm 4 m/s 740 mmHg 86%
    09:00 +3°C° 0 mm 4 m/s 740 mmHg 86%
    10:00 +4°C° 0 mm 3 m/s 741 mmHg 84%
    11:00 +4°C° 0 mm 3 m/s 741 mmHg 83%
    12:00 +6°C° 0 mm 2 m/s 741 mmHg 81%
    13:00 +6°C° 0 mm 2 m/s 741 mmHg 83%
    14:00 +5°C° 0 mm 2 m/s 741 mmHg 85%
    15:00 +5°C° 0 mm 2 m/s 741 mmHg 87%
    16:00 +5°C° 0 mm 2 m/s 741 mmHg 87%
    17:00 +5°C° 0 mm 1 m/s 741 mmHg 88%
    18:00 +5°C° 0 mm 1 m/s 741 mmHg 89%
    19:00 +5°C° 0 mm 1 m/s 741 mmHg 89%
    20:00 +5°C° 0 mm 1 m/s 741 mmHg 90%
    21:00 +5°C° 0 mm 1 m/s 741 mmHg 90%
    22:00 +5°C° 0 mm 1 m/s 741 mmHg 91%
    23:00 +5°C° 0 mm 1 m/s 741 mmHg 92%

    Demain, 17 Décembre, Mardi

    Heure Température Précipitation Vent Pression Humidité
    00:00 +5°C° 0 mm 1 m/s 740 mmHg 93%
    01:00 +5°C° 0 mm 1 m/s 740 mmHg 94%
    02:00 +5°C° 0 mm 1 m/s 740 mmHg 94%
    03:00 +4°C° 0 mm 2 m/s 740 mmHg 95%
    04:00 +4°C° 0.2 mm 2 m/s 739 mmHg 95%
    05:00 +4°C° 0.2 mm 2 m/s 739 mmHg 96%
    06:00 +4°C° 0.2 mm 2 m/s 739 mmHg 96%
    07:00 +4°C° 0.3 mm 2 m/s 739 mmHg 96%
    08:00 +4°C° 0.3 mm 2 m/s 739 mmHg 96%
    09:00 +4°C° 0.3 mm 2 m/s 739 mmHg 96%
    10:00 +3°C° 0.4 mm 3 m/s 739 mmHg 94%
    11:00 +4°C° 0.4 mm 3 m/s 739 mmHg 92%
    12:00 +4°C° 0.4 mm 3 m/s 739 mmHg 90%
    13:00 +5°C° 0 mm 2 m/s 739 mmHg 90%
    14:00 +5°C° 0 mm 2 m/s 740 mmHg 91%
    15:00 +6°C° 0 mm 1 m/s 740 mmHg 92%
    16:00 +5°C° 0 mm 1 m/s 741 mmHg 93%
    17:00 +5°C° 0 mm 1 m/s 741 mmHg 94%
    18:00 +4°C° 0 mm 2 m/s 741 mmHg 94%
    19:00 +3°C° 0 mm 2 m/s 742 mmHg 95%
    20:00 +3°C° 0 mm 2 m/s 742 mmHg 95%
    21:00 +3°C° 0 mm 2 m/s 743 mmHg 95%
    22:00 +1°C° 0 mm 3 m/s 743 mmHg 95%
    23:00 +1°C° 0 mm 3 m/s 744 mmHg 94%

    Après-demain, 18 Décembre, Mercredi

    Heure Température Précipitation Vent Pression Humidité
    00:00 +1°C° 0 mm 3 m/s 744 mmHg 93%
    01:00 0°C° 0 mm 3 m/s 744 mmHg 93%
    02:00 +1°C° 0 mm 2 m/s 745 mmHg 92%
    03:00 +1°C° 0 mm 2 m/s 745 mmHg 92%
    04:00 +1°C° 0 mm 2 m/s 745 mmHg 91%
    05:00 +1°C° 0 mm 2 m/s 746 mmHg 90%
    06:00 +1°C° 0 mm 2 m/s 746 mmHg 89%
    07:00 +1°C° 0 mm 2 m/s 746 mmHg 89%
    08:00 +1°C° 0 mm 2 m/s 746 mmHg 89%
    09:00 +1°C° 0 mm 2 m/s 747 mmHg 89%
    10:00 +2°C° 0 mm 2 m/s 746 mmHg 86%
    11:00 +3°C° 0 mm 2 m/s 746 mmHg 84%
    12:00 +3°C° 0 mm 3 m/s 746 mmHg 81%
    13:00 +3°C° 0 mm 3 m/s 746 mmHg 83%
    14:00 +3°C° 0 mm 3 m/s 745 mmHg 86%
    15:00 +3°C° 0 mm 3 m/s 745 mmHg 88%
    16:00 +3°C° 0 mm 4 m/s 744 mmHg 90%
    17:00 +1°C° 0 mm 4 m/s 744 mmHg 93%
    18:00 +1°C° 0 mm 5 m/s 744 mmHg 95%
    19:00 +1°C° 0 mm 5 m/s 743 mmHg 93%
    20:00 +1°C° 0 mm 6 m/s 743 mmHg 91%
    21:00 +1°C° 0 mm 6 m/s 742 mmHg 89%
    22:00 +2°C° 0 mm 6 m/s 742 mmHg 90%
    23:00 +2°C° 0 mm 7 m/s 741 mmHg 92%

    19 Décembre, Jeudi

    Heure Température Précipitation Vent Pression Humidité
    00:00 +2°C° 0 mm 7 m/s 740 mmHg 94%
    01:00 +3°C° 0.1 mm 7 m/s 739 mmHg 94%
    02:00 +4°C° 0.1 mm 7 m/s 737 mmHg 94%
    03:00 +4°C° 0.1 mm 8 m/s 736 mmHg 94%
    04:00 +5°C° 1.1 mm 8 m/s 735 mmHg 94%
    05:00 +5°C° 1.1 mm 8 m/s 734 mmHg 93%
    06:00 +6°C° 1.1 mm 8 m/s 733 mmHg 93%
    07:00 +6°C° 0.1 mm 7 m/s 733 mmHg 91%
    08:00 +6°C° 0.1 mm 7 m/s 734 mmHg 88%
    09:00 +7°C° 0.1 mm 6 m/s 734 mmHg 86%
    10:00 +8°C° 0 mm 6 m/s 735 mmHg 85%
    11:00 +8°C° 0 mm 5 m/s 735 mmHg 84%
    12:00 +8°C° 0 mm 5 m/s 736 mmHg 83%
    13:00 +8°C° 0 mm 4 m/s 736 mmHg 86%
    14:00 +7°C° 0 mm 4 m/s 737 mmHg 88%
    15:00 +8°C° 0 mm 3 m/s 737 mmHg 90%
    16:00 +7°C° 0 mm 3 m/s 737 mmHg 91%
    17:00 +7°C° 0 mm 3 m/s 737 mmHg 93%
    18:00 +5°C° 0 mm 3 m/s 737 mmHg 94%
    19:00 +5°C° 0 mm 3 m/s 737 mmHg 95%
    20:00 +4°C° 0 mm 3 m/s 737 mmHg 95%
    21:00 +4°C° 0 mm 3 m/s 737 mmHg 95%
    22:00 +4°C° 0 mm 3 m/s 737 mmHg 96%
    23:00 +5°C° 0 mm 2 m/s 737 mmHg 96%

    20 Décembre, Vendredi

    Heure Température Précipitation Vent Pression Humidité
    00:00 +5°C° 0 mm 2 m/s 736 mmHg 96%
    01:00 +4°C° 0 mm 3 m/s 736 mmHg 96%
    02:00 +4°C° 0 mm 3 m/s 736 mmHg 96%
    03:00 +4°C° 0 mm 3 m/s 735 mmHg 97%
    04:00 +4°C° 0.1 mm 3 m/s 735 mmHg 97%
    05:00 +4°C° 0.1 mm 3 m/s 735 mmHg 97%
    06:00 +4°C° 0.1 mm 3 m/s 735 mmHg 97%
    07:00 +4°C° 0.1 mm 3 m/s 735 mmHg 97%
    08:00 +4°C° 0.1 mm 3 m/s 735 mmHg 97%
    09:00 +4°C° 0.1 mm 3 m/s 735 mmHg 97%
    10:00 +5°C° 0 mm 3 m/s 734 mmHg 95%
    11:00 +7°C° 0 mm 3 m/s 734 mmHg 93%
    12:00 +7°C° 0 mm 3 m/s 734 mmHg 91%
    13:00 +7°C° 0 mm 3 m/s 734 mmHg 91%
    14:00 +7°C° 0 mm 2 m/s 734 mmHg 92%
    15:00 +7°C° 0 mm 2 m/s 734 mmHg 92%
    16:00 +7°C° 0 mm 2 m/s 734 mmHg 92%
    17:00 +6°C° 0 mm 2 m/s 734 mmHg 93%
    18:00 +6°C° 0 mm 2 m/s 734 mmHg 93%
    19:00 +6°C° 0 mm 2 m/s 735 mmHg 93%
    20:00 +5°C° 0 mm 2 m/s 735 mmHg 94%
    21:00 +5°C° 0 mm 2 m/s 735 mmHg 94%
    22:00 +5°C° 0 mm 2 m/s 735 mmHg 95%
    23:00 +6°C° 0 mm 1 m/s 735 mmHg 95%

    21 Décembre, Samedi

    Heure Température Précipitation Vent Pression Humidité
    00:00 +5°C° 0 mm 1 m/s 735 mmHg 95%
    01:00 +4°C° 0 mm 2 m/s 736 mmHg 95%
    02:00 +4°C° 0 mm 2 m/s 736 mmHg 95%
    03:00 +4°C° 0 mm 2 m/s 736 mmHg 95%
    04:00 +4°C° 0 mm 2 m/s 736 mmHg 95%
    05:00 +4°C° 0 mm 2 m/s 736 mmHg 95%
    06:00 +3°C° 0 mm 3 m/s 737 mmHg 96%
    07:00 +2°C° 0 mm 3 m/s 737 mmHg 96%
    08:00 +2°C° 0 mm 3 m/s 738 mmHg 96%
    09:00 +2°C° 0 mm 3 m/s 738 mmHg 96%
    10:00 +3°C° 0 mm 3 m/s 738 mmHg 93%
    11:00 +4°C° 0 mm 4 m/s 739 mmHg 90%
    12:00 +6°C° 0 mm 4 m/s 739 mmHg 87%
    13:00 +5°C° 0 mm 4 m/s 739 mmHg 88%
    14:00 +5°C° 0 mm 3 m/s 739 mmHg 89%
    15:00 +5°C° 0 mm 3 m/s 739 mmHg 90%
    16:00 +4°C° 0 mm 3 m/s 739 mmHg 91%
    17:00 +4°C° 0 mm 3 m/s 739 mmHg 91%
    18:00 +3°C° 0 mm 4 m/s 739 mmHg 92%
    19:00 +3°C° 0.4 mm 4 m/s 738 mmHg 91%
    20:00 +4°C° 0.4 mm 4 m/s 737 mmHg 91%
    21:00 +3°C° 0.4 mm 5 m/s 736 mmHg 91%
    22:00 +4°C° 1.6 mm 6 m/s 735 mmHg 92%
    23:00 +4°C° 1.6 mm 7 m/s 734 mmHg 93%
    Voir plus